contact:dominique.lefevre@mio.osupytheas.fr, maurice.libes@osupytheas.fr, didier.mallarino@osupytheas.fr
Project:EMSO http://www.emso-fr.org/EMSO-France
Depth: 2436.0 m
Title:EMSO Ligure Ouest : Data MII capteur AQUADOPP
Date,Latitude,Longitude,X_East,Y_North,Z_Up,Amplitude_X,Amplitude_Y,Amplitude_Z,Batterie,SoundSpeed,Heading,Pitch,Roll,Pressure,TIS,Speed,Direction
, degrees North, degrees East, m.s-1, m.s-1,m.s-1, 1, 1, 1, Volt, m.s-1, degree, degree, degree, dbar, degree_C, m.s-1, degree
2021-07-19T00:04:03,42.805,6.029,0.003,-0.007,-0.026,103.0,103.0,102.0,13.3,1505.2,328.5,-0.7,1.9,2470.486,13.28,0.007,156.8
2021-07-19T00:07:03,42.805,6.029,0.0,-0.013,-0.004,103.0,103.0,100.0,13.4,1505.2,328.0,-0.7,1.8,2470.515,13.28,0.013,180.0
2021-07-19T00:10:03,42.805,6.029,-0.01,0.0,0.002,104.0,102.0,103.0,13.4,1505.2,329.2,-0.7,1.8,2470.482,13.28,0.01,270.0
2021-07-19T00:13:03,42.805,6.029,0.017,-0.007,-0.031,103.0,103.0,100.0,13.4,1505.2,330.0,-0.7,1.8,2470.471,13.28,0.018,112.4
2021-07-19T00:16:03,42.805,6.029,0.008,-0.01,-0.02,103.0,103.0,101.0,13.4,1505.2,328.4,-0.7,1.8,2470.457,13.29,0.012,141.3
2021-07-19T00:19:03,42.805,6.029,0.0,-0.012,-0.016,103.0,105.0,102.0,13.4,1505.2,330.0,-0.7,1.8,2470.515,13.29,0.012,180.0
2021-07-19T00:22:03,42.805,6.029,0.003,-0.008,0.005,102.0,107.0,102.0,13.4,1505.2,325.4,-0.7,1.8,2470.484,13.29,0.008,159.4
2021-07-19T00:25:03,42.805,6.029,0.008,-0.005,-0.006,104.0,101.0,102.0,13.4,1505.2,325.5,-0.8,1.8,2470.464,13.29,0.009,122.0
2021-07-19T00:28:03,42.805,6.029,0.011,-0.006,-0.022,103.0,104.0,102.0,13.4,1505.2,327.1,-0.8,1.8,2470.486,13.29,0.012,118.6
2021-07-19T00:31:03,42.805,6.029,0.011,-0.002,-0.017,103.0,102.0,102.0,13.4,1505.2,328.5,-0.8,1.8,2470.483,13.29,0.011,100.3
2021-07-19T00:34:03,42.805,6.029,0.001,-0.004,0.008,103.0,103.0,101.0,13.4,1505.2,327.0,-0.8,1.8,2470.457,13.29,0.004,166.0
2021-07-19T00:37:03,42.805,6.029,-0.014,0.0,-0.009,103.0,102.0,102.0,13.3,1505.2,326.4,-0.8,1.8,2470.488,13.29,0.014,270.0
2021-07-19T00:40:03,42.805,6.029,0.008,-0.021,0.001,104.0,105.0,101.0,13.4,1505.2,327.6,-0.8,1.8,2470.501,13.29,0.022,159.1
2021-07-19T00:43:03,42.805,6.029,0.0,-0.014,0.0,104.0,102.0,101.0,13.3,1505.2,330.1,-0.8,1.8,2470.455,13.29,0.014,180.0
2021-07-19T00:46:03,42.805,6.029,0.018,0.005,-0.004,103.0,104.0,102.0,13.3,1505.2,326.7,-0.8,1.8,2470.51,13.29,0.018,74.5
2021-07-19T00:49:03,42.805,6.029,0.0,-0.002,0.01,103.0,103.0,102.0,13.4,1505.2,328.6,-0.8,1.8,2470.51,13.29,0.002,180.0
2021-07-19T00:52:03,42.805,6.029,0.007,0.001,-0.008,101.0,106.0,101.0,13.4,1505.2,326.7,-0.8,1.8,2470.489,13.29,0.007,81.9
2021-07-19T00:55:03,42.805,6.029,-0.009,0.008,-0.013,105.0,102.0,101.0,13.4,1505.2,327.4,-0.8,1.8,2470.452,13.29,0.012,311.6
2021-07-19T00:58:03,42.805,6.029,0.0,-0.001,-0.008,103.0,103.0,100.0,13.3,1505.2,328.5,-0.7,1.8,2470.486,13.29,0.001,180.0
2021-07-19T01:04:03,42.805,6.029,-0.002,-0.003,-0.009,103.0,104.0,102.0,13.4,1505.2,328.0,-0.8,1.8,2470.53,13.28,0.003,213.7
2021-07-19T01:07:03,42.805,6.029,-0.008,-0.008,-0.032,104.0,106.0,103.0,13.4,1505.2,324.7,-0.8,1.8,2470.545,13.28,0.011,225.0
2021-07-19T01:10:02,42.805,6.029,0.014,-0.005,-0.019,104.0,101.0,101.0,13.4,1505.2,324.9,-0.8,1.8,2470.499,13.28,0.014,109.6
2021-07-19T01:13:03,42.805,6.029,0.018,-0.001,-0.015,105.0,102.0,102.0,13.4,1505.2,328.5,-0.8,1.8,2470.503,13.28,0.018,93.2
2021-07-19T01:16:03,42.805,6.029,-0.009,-0.001,-0.022,105.0,103.0,101.0,13.4,1505.2,329.2,-0.8,1.8,2470.525,13.28,0.009,263.7
2021-07-19T01:19:03,42.805,6.029,0.015,-0.026,-0.001,104.0,101.0,101.0,13.4,1505.2,325.7,-0.8,1.8,2470.525,13.28,0.03,150.0
2021-07-19T01:22:03,42.805,6.029,0.009,0.003,0.008,102.0,103.0,101.0,13.4,1505.2,327.1,-0.8,1.8,2470.527,13.28,0.009,71.6
2021-07-19T01:25:03,42.805,6.029,0.001,-0.002,0.022,102.0,103.0,101.0,13.4,1505.2,328.6,-0.8,1.9,2470.512,13.28,0.002,153.4
2021-07-19T01:28:03,42.805,6.029,-0.005,0.009,0.012,103.0,102.0,100.0,13.3,1505.2,329.7,-0.8,1.8,2470.518,13.28,0.01,330.9
2021-07-19T01:31:03,42.805,6.029,0.001,-0.004,0.02,103.0,103.0,102.0,13.4,1505.2,327.2,-0.7,1.8,2470.481,13.28,0.004,166.0
2021-07-19T01:34:03,42.805,6.029,0.018,-0.024,-0.021,103.0,102.0,101.0,13.4,1505.2,330.3,-0.7,1.8,2470.519,13.28,0.03,143.1
2021-07-19T01:37:03,42.805,6.029,0.008,-0.005,-0.003,102.0,103.0,100.0,13.4,1505.2,325.3,-0.7,1.8,2470.507,13.28,0.009,122.0
2021-07-19T01:40:03,42.805,6.029,-0.011,-0.008,-0.017,103.0,103.0,100.0,13.4,1505.2,329.2,-0.8,1.8,2470.523,13.28,0.013,234.0
2021-07-19T01:43:03,42.805,6.029,0.014,-0.023,-0.029,102.0,102.0,101.0,13.4,1505.2,325.0,-0.8,1.8,2470.496,13.28,0.026,148.7
2021-07-19T01:46:03,42.805,6.029,0.003,-0.02,-0.014,104.0,104.0,101.0,13.4,1505.2,329.9,-0.8,1.8,2470.544,13.28,0.02,171.5
2021-07-19T01:49:03,42.805,6.029,0.001,0.003,-0.011,103.0,103.0,102.0,13.3,1505.2,329.3,-0.8,1.8,2470.51,13.28,0.003,18.4
2021-07-19T01:52:03,42.805,6.029,-0.015,-0.005,0.001,103.0,103.0,101.0,13.4,1505.2,328.2,-0.7,1.8,2470.495,13.28,0.015,251.6
2021-07-19T01:55:03,42.805,6.029,0.009,0.013,0.018,103.0,102.0,100.0,13.4,1505.2,325.6,-0.7,1.8,2470.484,13.28,0.015,34.7
2021-07-19T01:58:03,42.805,6.029,0.02,-0.001,-0.015,104.0,102.0,101.0,13.4,1505.2,328.3,-0.8,1.8,2470.523,13.28,0.02,92.9
2021-07-19T02:04:03,42.805,6.029,0.018,-0.005,-0.025,103.0,103.0,101.0,13.4,1505.2,327.1,-0.7,1.8,2470.507,13.28,0.018,105.5
2021-07-19T02:07:03,42.805,6.029,-0.008,-0.008,-0.002,103.0,104.0,102.0,13.4,1505.2,327.1,-0.8,1.8,2470.534,13.28,0.011,225.0
2021-07-19T02:10:03,42.805,6.029,0.014,-0.011,-0.016,102.0,104.0,100.0,13.3,1505.2,325.5,-0.7,1.8,2470.554,13.28,0.017,128.2
2021-07-19T02:13:03,42.805,6.029,-0.014,0.004,0.003,103.0,102.0,100.0,13.3,1505.2,327.9,-0.8,1.8,2470.53,13.28,0.014,285.9
2021-07-19T02:16:03,42.805,6.029,0.017,-0.023,-0.027,102.0,104.0,101.0,13.4,1505.2,330.4,-0.7,1.9,2470.517,13.28,0.028,143.5
2021-07-19T02:19:03,42.805,6.029,0.0,-0.008,-0.017,102.0,102.0,101.0,13.3,1505.2,328.9,-0.7,1.8,2470.52,13.28,0.008,180.0
2021-07-19T02:22:03,42.805,6.029,0.002,-0.011,-0.011,103.0,103.0,102.0,13.3,1505.2,330.1,-0.8,1.8,2470.515,13.28,0.011,169.7
2021-07-19T02:25:03,42.805,6.029,0.005,0.004,0.008,103.0,103.0,100.0,13.4,1505.2,325.1,-0.7,1.8,2470.537,13.28,0.006,51.3
2021-07-19T02:28:03,42.805,6.029,0.022,0.008,0.012,103.0,104.0,102.0,13.3,1505.2,324.8,-0.8,1.8,2470.533,13.28,0.023,70.0
2021-07-19T02:31:03,42.805,6.029,-0.019,-0.005,-0.037,102.0,105.0,101.0,13.3,1505.2,328.5,-0.8,1.8,2470.52,13.28,0.019,255.3
2021-07-19T02:34:03,42.805,6.029,0.004,-0.006,-0.01,104.0,103.0,102.0,13.4,1505.2,328.4,-0.8,1.8,2470.509,13.28,0.007,146.3
2021-07-19T02:37:03,42.805,6.029,0.003,-0.004,0.002,100.0,103.0,102.0,13.4,1505.2,326.9,-0.8,1.8,2470.527,13.28,0.005,143.1
2021-07-19T02:40:03,42.805,6.029,-0.022,-0.004,-0.021,102.0,102.0,100.0,13.4,1505.2,326.4,-0.7,1.8,2470.499,13.28,0.022,259.7
2021-07-19T02:43:03,42.805,6.029,0.021,-0.018,-0.026,103.0,101.0,100.0,13.4,1505.2,330.1,-0.8,1.8,2470.48,13.28,0.027,130.6
2021-07-19T02:46:03,42.805,6.029,0.001,0.014,0.026,103.0,103.0,101.0,13.4,1505.2,328.0,-0.8,1.8,2470.495,13.28,0.014,4.1
2021-07-19T02:49:03,42.805,6.029,-0.016,-0.008,-0.04,102.0,103.0,102.0,13.3,1505.2,325.5,-0.8,1.8,2470.51,13.28,0.017,243.4
2021-07-19T02:52:03,42.805,6.029,-0.002,-0.004,0.007,102.0,102.0,101.0,13.4,1505.2,326.6,-0.7,1.8,2470.5,13.28,0.004,206.6
2021-07-19T02:55:03,42.805,6.029,0.022,0.0,0.01,103.0,103.0,101.0,13.3,1505.2,325.6,-0.8,1.8,2470.472,13.28,0.022,90.0
2021-07-19T02:58:03,42.805,6.029,-0.009,0.008,0.007,102.0,103.0,102.0,13.4,1505.2,327.6,-0.8,1.9,2470.506,13.28,0.012,311.6
2021-07-19T03:04:03,42.805,6.029,0.016,-0.014,-0.019,102.0,102.0,102.0,13.3,1505.2,329.1,-0.7,1.8,2470.508,13.28,0.021,131.2
2021-07-19T03:07:03,42.805,6.029,-0.015,-0.007,-0.03,103.0,102.0,102.0,13.3,1505.2,328.5,-0.8,1.9,2470.5,13.28,0.016,245.0
2021-07-19T03:10:03,42.805,6.029,-0.005,-0.013,-0.003,102.0,103.0,100.0,13.4,1505.2,325.5,-0.7,1.8,2470.492,13.28,0.013,201.0
2021-07-19T03:13:03,42.805,6.029,0.003,-0.006,-0.005,103.0,104.0,101.0,13.4,1505.2,326.7,-0.8,1.8,2470.505,13.28,0.006,153.4
2021-07-19T03:16:03,42.805,6.029,-0.011,-0.016,-0.015,103.0,103.0,100.0,13.4,1505.2,325.8,-0.8,1.8,2470.52,13.28,0.019,214.5
2021-07-19T03:19:03,42.805,6.029,0.028,0.003,0.003,102.0,103.0,101.0,13.3,1505.2,325.7,-0.8,1.8,2470.479,13.28,0.028,83.9
2021-07-19T03:22:03,42.805,6.029,0.007,-0.001,0.012,103.0,101.0,102.0,13.4,1505.2,327.2,-0.8,1.9,2470.503,13.28,0.007,98.1
2021-07-19T03:25:03,42.805,6.029,0.001,-0.006,-0.004,102.0,102.0,102.0,13.4,1505.2,329.5,-0.8,1.8,2470.49,13.28,0.006,170.5
2021-07-19T03:28:03,42.805,6.029,0.0,-0.006,-0.017,101.0,102.0,101.0,13.3,1505.2,326.3,-0.8,1.9,2470.493,13.28,0.006,180.0
2021-07-19T03:31:03,42.805,6.029,0.02,-0.008,0.003,102.0,103.0,102.0,13.4,1505.2,328.7,-0.8,1.8,2470.467,13.28,0.021,111.8
2021-07-19T03:34:03,42.805,6.029,0.006,0.012,-0.016,104.0,102.0,101.0,13.4,1505.2,329.2,-0.8,1.9,2470.494,13.28,0.013,26.6
2021-07-19T03:37:03,42.805,6.029,0.008,-0.01,0.002,102.0,103.0,101.0,13.4,1505.2,325.7,-0.8,1.8,2470.504,13.28,0.012,141.3
2021-07-19T03:40:03,42.805,6.029,-0.001,-0.012,-0.007,102.0,102.0,101.0,13.4,1505.2,327.4,-0.8,1.8,2470.497,13.28,0.012,184.8
2021-07-19T03:43:03,42.805,6.029,0.023,0.025,0.024,103.0,103.0,101.0,13.4,1505.2,330.4,-0.7,1.8,2470.474,13.28,0.033,42.6
2021-07-19T03:46:03,42.805,6.029,0.0,-0.005,-0.007,102.0,103.0,101.0,13.4,1505.2,328.5,-0.8,1.9,2470.515,13.28,0.005,180.0
2021-07-19T03:49:03,42.805,6.029,0.004,-0.001,-0.004,104.0,104.0,101.0,13.3,1505.2,327.0,-0.7,1.8,2470.509,13.28,0.004,104.0
2021-07-19T03:52:03,42.805,6.029,0.016,0.005,-0.001,103.0,105.0,100.0,13.4,1505.2,329.0,-0.8,1.8,2470.488,13.28,0.016,72.6
2021-07-19T03:55:03,42.805,6.029,0.003,-0.015,-0.017,104.0,102.0,101.0,13.3,1505.2,326.9,-0.7,1.8,2470.487,13.28,0.015,168.7
2021-07-19T03:58:03,42.805,6.029,0.033,0.013,0.035,103.0,102.0,101.0,13.3,1505.2,329.0,-0.8,1.8,2470.489,13.28,0.035,68.5
2021-07-19T04:04:03,42.805,6.029,0.012,0.002,-0.003,101.0,104.0,100.0,13.4,1505.2,329.9,-0.8,1.8,2470.516,13.28,0.012,80.5
2021-07-19T04:07:03,42.805,6.029,0.038,-0.023,0.025,103.0,103.0,101.0,13.3,1505.2,330.3,-0.7,1.9,2470.514,13.28,0.044,121.2
2021-07-19T04:10:03,42.805,6.029,0.019,-0.001,0.001,102.0,103.0,101.0,13.4,1505.2,326.9,-0.8,1.8,2470.523,13.28,0.019,93.0
2021-07-19T04:13:03,42.805,6.029,0.006,0.016,-0.005,103.0,101.0,101.0,13.4,1505.2,329.1,-0.7,1.8,2470.49,13.28,0.017,20.6
2021-07-19T04:16:03,42.805,6.029,0.013,-0.019,-0.017,103.0,103.0,101.0,13.3,1505.2,328.8,-0.7,1.8,2470.499,13.28,0.023,145.6
2021-07-19T04:19:03,42.805,6.029,-0.003,-0.001,0.007,102.0,104.0,101.0,13.4,1505.2,325.0,-0.7,1.8,2470.483,13.28,0.003,251.6
2021-07-19T04:22:03,42.805,6.029,0.0,-0.004,-0.001,103.0,103.0,101.0,13.4,1505.2,329.8,-0.8,1.8,2470.491,13.28,0.004,180.0
2021-07-19T04:25:03,42.805,6.029,0.005,-0.014,-0.009,102.0,104.0,101.0,13.3,1505.2,326.1,-0.8,1.8,2470.455,13.28,0.014,160.4
2021-07-19T04:28:03,42.805,6.029,0.025,0.0,-0.001,103.0,102.0,100.0,13.4,1505.2,328.0,-0.7,1.8,2470.484,13.28,0.025,90.0
2021-07-19T04:31:03,42.805,6.029,0.006,0.02,0.005,102.0,103.0,100.0,13.4,1505.2,326.8,-0.7,1.8,2470.506,13.28,0.02,16.7
2021-07-19T04:34:03,42.805,6.029,0.017,0.009,0.019,102.0,101.0,101.0,13.4,1505.2,326.2,-0.7,1.8,2470.492,13.28,0.019,62.1
2021-07-19T04:37:03,42.805,6.029,0.013,-0.026,-0.002,101.0,102.0,101.0,13.4,1505.2,327.3,-0.7,1.8,2470.493,13.28,0.029,153.4
2021-07-19T04:40:03,42.805,6.029,0.009,-0.022,-0.03,102.0,103.0,101.0,13.3,1505.2,329.0,-0.7,1.8,2470.486,13.28,0.023,157.8
2021-07-19T04:43:03,42.805,6.029,0.0,0.001,-0.008,103.0,104.0,101.0,13.3,1505.2,326.7,-0.8,1.8,2470.478,13.28,0.001,0.0
2021-07-19T04:46:03,42.805,6.029,0.006,-0.001,-0.005,101.0,102.0,101.0,13.4,1505.2,328.2,-0.8,1.8,2470.504,13.28,0.006,99.5
2021-07-19T04:49:03,42.805,6.029,0.005,-0.004,0.029,101.0,103.0,101.0,13.4,1505.2,329.4,-0.7,1.8,2470.49,13.28,0.006,128.7
2021-07-19T04:52:03,42.805,6.029,0.027,-0.009,-0.001,103.0,105.0,100.0,13.4,1505.2,327.2,-0.8,1.9,2470.483,13.28,0.028,108.4
2021-07-19T04:55:03,42.805,6.029,0.02,-0.009,-0.005,102.0,104.0,101.0,13.3,1505.2,328.5,-0.7,1.8,2470.502,13.28,0.021,114.2
2021-07-19T04:58:03,42.805,6.029,0.021,-0.015,0.005,102.0,102.0,101.0,13.4,1505.2,328.3,-0.7,1.8,2470.482,13.28,0.025,125.5
2021-07-19T05:04:03,42.805,6.029,0.017,-0.005,0.0,102.0,103.0,100.0,13.4,1505.2,328.8,-0.7,1.8,2470.493,13.28,0.017,106.4
2021-07-19T05:07:03,42.805,6.029,0.021,0.0,0.0,102.0,109.0,101.0,13.3,1505.2,326.9,-0.8,1.8,2470.475,13.28,0.021,90.0
2021-07-19T05:10:03,42.805,6.029,0.008,-0.001,-0.02,102.0,102.0,101.0,13.4,1505.2,328.9,-0.8,1.8,2470.468,13.28,0.008,97.1
2021-07-19T05:13:03,42.805,6.029,0.023,-0.028,-0.012,102.0,102.0,101.0,13.3,1505.2,330.5,-0.7,1.8,2470.518,13.28,0.036,140.6
2021-07-19T05:16:03,42.805,6.029,0.014,-0.022,-0.019,101.0,102.0,101.0,13.4,1505.2,328.9,-0.7,1.8,2470.488,13.28,0.026,147.5
2021-07-19T05:19:03,42.805,6.029,0.01,-0.013,-0.01,101.0,102.0,101.0,13.4,1505.2,327.4,-0.8,1.9,2470.481,13.28,0.016,142.4
2021-07-19T05:22:03,42.805,6.029,0.009,-0.032,-0.014,103.0,102.0,100.0,13.3,1505.2,328.6,-0.8,1.8,2470.481,13.28,0.033,164.3
2021-07-19T05:25:03,42.805,6.029,0.004,-0.012,-0.023,103.0,103.0,100.0,13.4,1505.2,328.4,-0.7,1.8,2470.483,13.28,0.012,161.6
2021-07-19T05:28:03,42.805,6.029,0.014,0.0,0.025,101.0,103.0,101.0,13.3,1505.2,327.3,-0.8,1.8,2470.498,13.28,0.014,90.0
2021-07-19T05:31:03,42.805,6.029,0.012,-0.022,-0.01,101.0,103.0,101.0,13.3,1505.2,327.9,-0.8,1.8,2470.516,13.28,0.025,151.4
2021-07-19T05:34:03,42.805,6.029,0.009,-0.01,-0.005,102.0,103.0,101.0,13.4,1505.2,326.5,-0.8,1.8,2470.534,13.28,0.013,138.0
2021-07-19T05:37:03,42.805,6.029,0.019,-0.015,0.003,102.0,103.0,100.0,13.4,1505.2,326.5,-0.8,1.8,2470.532,13.28,0.024,128.3
2021-07-19T05:40:03,42.805,6.029,0.013,0.008,0.023,103.0,103.0,101.0,13.3,1505.2,326.7,-0.8,1.8,2470.56,13.28,0.015,58.4
2021-07-19T05:43:03,42.805,6.029,0.0,-0.003,-0.004,101.0,103.0,101.0,13.3,1505.2,329.9,-0.7,1.9,2470.502,13.28,0.003,180.0
2021-07-19T05:46:03,42.805,6.029,0.005,-0.007,-0.005,102.0,103.0,101.0,13.3,1505.2,328.7,-0.8,1.8,2470.551,13.28,0.008,144.5
2021-07-19T05:49:03,42.805,6.029,0.001,-0.03,-0.043,102.0,102.0,102.0,13.4,1505.2,328.0,-0.7,1.8,2470.521,13.28,0.03,178.1
2021-07-19T05:52:03,42.805,6.029,0.01,-0.019,0.0,104.0,102.0,100.0,13.4,1505.2,324.8,-0.8,1.8,2470.552,13.28,0.021,152.2
2021-07-19T05:55:03,42.805,6.029,0.018,-0.029,0.009,101.0,103.0,101.0,13.3,1505.2,328.0,-0.7,1.8,2470.536,13.28,0.034,148.2
2021-07-19T05:58:03,42.805,6.029,0.023,-0.016,-0.004,100.0,103.0,101.0,13.3,1505.2,326.8,-0.8,1.8,2470.561,13.28,0.028,124.8
2021-07-19T06:04:03,42.805,6.029,0.008,-0.028,-0.003,103.0,101.0,101.0,13.4,1505.2,327.3,-0.7,1.8,2470.597,13.28,0.029,164.1
2021-07-19T06:07:03,42.805,6.029,-0.004,-0.01,0.002,102.0,103.0,100.0,13.4,1505.2,326.0,-0.7,1.8,2470.57,13.28,0.01,201.8
2021-07-19T06:10:03,42.805,6.029,0.015,0.0,0.016,102.0,102.0,100.0,13.4,1505.2,330.1,-0.8,1.8,2470.533,13.28,0.015,90.0
2021-07-19T06:13:03,42.805,6.029,0.006,-0.025,0.0,102.0,102.0,101.0,13.3,1505.2,329.6,-0.8,1.8,2470.564,13.28,0.025,166.5
2021-07-19T06:16:03,42.805,6.029,0.002,-0.035,-0.002,103.0,102.0,101.0,13.4,1505.2,326.8,-0.8,1.8,2470.563,13.28,0.035,176.7
2021-07-19T06:19:03,42.805,6.029,0.009,-0.01,-0.022,102.0,103.0,101.0,13.3,1505.2,328.4,-0.7,1.8,2470.54,13.28,0.013,138.0
2021-07-19T06:22:03,42.805,6.029,0.002,-0.018,-0.026,102.0,102.0,101.0,13.4,1505.2,327.8,-0.8,1.8,2470.571,13.28,0.018,173.7
2021-07-19T06:25:03,42.805,6.029,0.018,-0.008,-0.013,103.0,101.0,100.0,13.4,1505.2,326.8,-0.7,1.8,2470.521,13.28,0.019,114.0
2021-07-19T06:28:03,42.805,6.029,0.016,-0.012,-0.012,102.0,102.0,100.0,13.3,1505.2,325.9,-0.8,1.8,2470.518,13.28,0.02,126.9
2021-07-19T06:31:03,42.805,6.029,0.003,-0.021,-0.007,102.0,102.0,100.0,13.4,1505.2,328.1,-0.7,1.8,2470.567,13.28,0.021,171.9
2021-07-19T06:34:03,42.805,6.029,0.023,-0.003,0.024,101.0,101.0,100.0,13.4,1505.2,330.1,-0.8,1.9,2470.571,13.28,0.023,97.4
2021-07-19T06:37:03,42.805,6.029,0.003,-0.01,-0.026,102.0,101.0,100.0,13.3,1505.2,324.8,-0.8,1.8,2470.543,13.28,0.01,163.3
2021-07-19T06:40:03,42.805,6.029,-0.006,-0.021,-0.02,101.0,102.0,102.0,13.4,1505.2,328.8,-0.7,1.8,2470.529,13.28,0.021,195.9
2021-07-19T06:43:03,42.805,6.029,0.027,-0.02,-0.007,103.0,102.0,100.0,13.3,1505.2,327.6,-0.7,1.8,2470.529,13.28,0.033,126.5
2021-07-19T06:46:03,42.805,6.029,0.016,-0.027,-0.004,103.0,102.0,100.0,13.4,1505.2,328.6,-0.7,1.8,2470.543,13.28,0.031,149.3
2021-07-19T06:49:03,42.805,6.029,0.013,-0.017,-0.027,102.0,102.0,100.0,13.3,1505.2,329.6,-0.7,1.8,2470.525,13.28,0.021,142.6
2021-07-19T06:52:03,42.805,6.029,0.005,-0.016,-0.009,101.0,103.0,102.0,13.3,1505.2,328.8,-0.7,1.8,2470.532,13.28,0.016,162.6
2021-07-19T06:55:03,42.805,6.029,0.006,0.005,-0.013,103.0,102.0,100.0,13.4,1505.2,328.5,-0.7,1.8,2470.544,13.28,0.007,50.2
2021-07-19T06:58:03,42.805,6.029,0.029,-0.006,-0.02,101.0,102.0,102.0,13.4,1505.2,326.4,-0.8,1.8,2470.506,13.28,0.029,101.7
2021-07-19T07:04:03,42.805,6.029,0.007,-0.014,0.007,101.0,103.0,100.0,13.4,1505.2,329.0,-0.7,1.8,2470.552,13.28,0.015,153.4
2021-07-19T07:07:03,42.805,6.029,0.025,-0.023,-0.041,101.0,103.0,99.0,13.4,1505.2,327.4,-0.7,1.8,2470.572,13.28,0.033,132.6
2021-07-19T07:10:03,42.805,6.029,0.0,-0.023,-0.013,102.0,103.0,100.0,13.4,1505.2,329.6,-0.7,1.8,2470.543,13.28,0.023,180.0
2021-07-19T07:13:03,42.805,6.029,0.02,-0.009,0.008,103.0,101.0,101.0,13.4,1505.2,328.0,-0.7,1.8,2470.512,13.28,0.021,114.2
2021-07-19T07:16:03,42.805,6.029,0.012,-0.005,0.005,103.0,102.0,101.0,13.4,1505.2,328.6,-0.8,1.8,2470.537,13.28,0.013,112.6
2021-07-19T07:19:03,42.805,6.029,0.018,-0.023,-0.001,103.0,103.0,101.0,13.4,1505.2,329.7,-0.7,1.9,2470.542,13.28,0.029,142.0
2021-07-19T07:22:03,42.805,6.029,-0.002,-0.008,-0.024,101.0,102.0,101.0,13.4,1505.2,329.2,-0.8,1.8,2470.536,13.28,0.008,194.0
2021-07-19T07:25:03,42.805,6.029,0.021,-0.03,0.015,103.0,101.0,101.0,13.3,1505.2,330.4,-0.7,1.9,2470.492,13.28,0.036,145.0
2021-07-19T07:28:03,42.805,6.029,0.03,-0.006,0.036,102.0,103.0,100.0,13.4,1505.2,327.3,-0.7,1.8,2470.533,13.28,0.03,101.3
2021-07-19T07:31:03,42.805,6.029,0.005,-0.031,-0.001,100.0,102.0,102.0,13.4,1505.2,325.0,-0.7,1.8,2470.516,13.28,0.031,170.8
2021-07-19T07:34:03,42.805,6.029,0.005,-0.025,-0.032,101.0,102.0,100.0,13.3,1505.2,327.8,-0.7,1.8,2470.511,13.28,0.025,168.7
2021-07-19T07:37:03,42.805,6.029,0.0,-0.022,-0.017,104.0,101.0,101.0,13.3,1505.2,326.8,-0.7,1.8,2470.508,13.28,0.022,180.0
2021-07-19T07:40:03,42.805,6.029,0.01,0.001,0.012,103.0,101.0,101.0,13.4,1505.2,326.3,-0.8,1.8,2470.499,13.28,0.01,84.3
2021-07-19T07:43:03,42.805,6.029,0.029,-0.026,-0.018,100.0,101.0,103.0,13.4,1505.2,330.7,-0.8,1.8,2470.52,13.28,0.038,131.9
2021-07-19T07:46:03,42.805,6.029,0.009,-0.01,-0.015,102.0,102.0,100.0,13.4,1505.2,325.6,-0.7,1.8,2470.489,13.28,0.013,138.0
2021-07-19T07:49:03,42.805,6.029,0.031,-0.02,-0.004,101.0,104.0,100.0,13.4,1505.2,327.3,-0.7,1.9,2470.46,13.28,0.036,122.8
2021-07-19T07:52:03,42.805,6.029,0.017,-0.004,0.022,101.0,101.0,101.0,13.4,1505.2,329.6,-0.7,1.8,2470.475,13.28,0.017,103.2
2021-07-19T07:55:03,42.805,6.029,0.024,-0.021,-0.029,102.0,102.0,100.0,13.3,1505.2,327.6,-0.8,1.9,2470.482,13.28,0.031,131.2
2021-07-19T07:58:03,42.805,6.029,0.01,-0.035,0.001,101.0,104.0,101.0,13.4,1505.2,329.1,-0.7,1.8,2470.509,13.28,0.036,164.1
2021-07-19T08:04:03,42.805,6.029,0.016,-0.009,-0.005,101.0,103.0,101.0,13.4,1505.2,326.7,-0.8,1.8,2470.513,13.28,0.018,119.4
2021-07-19T08:07:03,42.805,6.029,0.0,-0.023,-0.005,102.0,102.0,102.0,13.3,1505.2,326.7,-0.7,1.8,2470.508,13.28,0.023,180.0
2021-07-19T08:10:03,42.805,6.029,0.009,-0.023,-0.01,102.0,101.0,100.0,13.4,1505.2,329.2,-0.7,1.9,2470.496,13.28,0.024,158.6
2021-07-19T08:13:03,42.805,6.029,0.029,-0.036,-0.025,102.0,102.0,100.0,13.4,1505.2,329.9,-0.8,1.8,2470.552,13.28,0.046,141.1
2021-07-19T08:16:03,42.805,6.029,0.018,-0.038,-0.011,102.0,103.0,100.0,13.4,1505.2,329.1,-0.7,1.8,2470.518,13.28,0.042,154.7
2021-07-19T08:19:03,42.805,6.029,0.005,-0.009,-0.024,104.0,102.0,101.0,13.3,1505.2,325.7,-0.7,1.8,2470.504,13.28,0.01,150.9
2021-07-19T08:22:03,42.805,6.029,0.021,-0.036,-0.016,101.0,102.0,101.0,13.4,1505.2,326.8,-0.8,1.8,2470.49,13.28,0.041,149.7
2021-07-19T08:25:03,42.805,6.029,0.007,-0.007,0.012,102.0,102.0,101.0,13.4,1505.2,326.1,-0.7,1.8,2470.482,13.28,0.009,135.0
2021-07-19T08:28:03,42.805,6.029,0.011,-0.019,0.022,102.0,102.0,101.0,13.3,1505.2,326.8,-0.8,1.8,2470.479,13.28,0.021,149.9
2021-07-19T08:31:03,42.805,6.029,0.008,-0.031,0.001,103.0,101.0,100.0,13.4,1505.2,325.0,-0.7,1.8,2470.506,13.28,0.032,165.5
2021-07-19T08:34:03,42.805,6.029,0.025,-0.011,0.003,102.0,102.0,101.0,13.4,1505.2,331.0,-0.7,1.8,2470.504,13.28,0.027,113.7
2021-07-19T08:37:03,42.805,6.029,0.028,-0.01,0.021,101.0,102.0,101.0,13.4,1505.2,325.0,-0.7,1.8,2470.46,13.28,0.029,109.6
2021-07-19T08:40:03,42.805,6.029,0.017,-0.003,0.015,102.0,102.0,100.0,13.4,1505.2,326.4,-0.7,1.9,2470.501,13.28,0.017,100.0
2021-07-19T08:43:03,42.805,6.029,0.01,-0.012,0.015,102.0,103.0,101.0,13.3,1505.2,325.9,-0.7,1.8,2470.5,13.28,0.015,140.2
2021-07-19T08:46:03,42.805,6.029,0.019,-0.006,0.004,100.0,103.0,102.0,13.4,1505.2,328.7,-0.8,1.8,2470.492,13.28,0.019,107.5
2021-07-19T08:49:03,42.805,6.029,0.011,-0.001,0.008,103.0,102.0,101.0,13.4,1505.2,328.7,-0.8,1.8,2470.453,13.28,0.011,95.2
2021-07-19T08:52:03,42.805,6.029,-0.001,-0.013,-0.017,103.0,103.0,101.0,13.4,1505.2,329.7,-0.8,1.8,2470.454,13.28,0.013,184.4
2021-07-19T08:55:03,42.805,6.029,0.005,-0.024,-0.015,101.0,102.0,102.0,13.4,1505.2,328.4,-0.7,1.8,2470.45,13.28,0.024,168.2
2021-07-19T08:58:03,42.805,6.029,0.03,-0.015,0.002,102.0,103.0,103.0,13.3,1505.2,330.1,-0.8,1.8,2470.478,13.28,0.033,116.6
2021-07-19T09:04:03,42.805,6.029,0.009,-0.011,-0.001,103.0,103.0,101.0,13.4,1505.2,327.9,-0.7,1.9,2470.492,13.28,0.014,140.7
2021-07-19T09:07:03,42.805,6.029,0.012,-0.029,-0.008,103.0,102.0,101.0,13.4,1505.2,326.1,-0.8,1.8,2470.487,13.28,0.031,157.5
2021-07-19T09:10:03,42.805,6.029,0.012,-0.008,0.012,102.0,102.0,102.0,13.3,1505.2,329.7,-0.7,1.8,2470.425,13.28,0.014,123.7
2021-07-19T09:13:03,42.805,6.029,0.029,-0.024,-0.008,103.0,102.0,101.0,13.3,1505.2,326.6,-0.8,1.8,2470.474,13.28,0.037,129.6
2021-07-19T09:16:03,42.805,6.029,0.019,-0.026,-0.018,104.0,102.0,101.0,13.4,1505.2,326.3,-0.8,1.8,2470.474,13.28,0.032,143.8
2021-07-19T09:19:03,42.805,6.029,0.018,-0.044,-0.015,102.0,103.0,101.0,13.4,1505.2,325.7,-0.8,1.8,2470.471,13.28,0.047,157.8
2021-07-19T09:22:03,42.805,6.029,0.01,-0.012,-0.019,103.0,103.0,101.0,13.4,1505.2,329.6,-0.7,1.8,2470.468,13.28,0.015,140.2
2021-07-19T09:25:03,42.805,6.029,0.026,-0.033,0.007,103.0,103.0,102.0,13.3,1505.2,328.2,-0.8,1.8,2470.499,13.28,0.042,141.8
2021-07-19T09:28:03,42.805,6.029,0.015,-0.017,-0.004,104.0,102.0,102.0,13.3,1505.2,329.1,-0.8,1.8,2470.452,13.28,0.022,138.6
2021-07-19T09:31:03,42.805,6.029,0.005,-0.04,-0.012,102.0,104.0,101.0,13.4,1505.2,330.5,-0.8,1.8,2470.47,13.28,0.04,172.9
2021-07-19T09:34:03,42.805,6.029,0.013,-0.025,0.008,101.0,103.0,102.0,13.4,1505.2,326.6,-0.8,1.8,2470.472,13.28,0.028,152.5
2021-07-19T09:37:03,42.805,6.029,0.012,-0.016,0.016,103.0,103.0,101.0,13.4,1505.2,330.3,-0.7,1.8,2470.525,13.28,0.02,143.1
2021-07-19T09:40:03,42.805,6.029,0.031,-0.028,0.013,102.0,101.0,102.0,13.4,1505.2,326.7,-0.8,1.8,2470.469,13.28,0.041,132.1
2021-07-19T09:43:03,42.805,6.029,0.002,-0.014,0.002,102.0,104.0,100.0,13.4,1505.2,325.8,-0.8,1.8,2470.463,13.28,0.014,171.9
2021-07-19T09:46:03,42.805,6.029,0.003,-0.005,-0.009,103.0,103.0,101.0,13.3,1505.2,327.7,-0.8,1.8,2470.473,13.28,0.005,149.0
2021-07-19T09:49:03,42.805,6.029,0.019,-0.014,0.017,104.0,103.0,101.0,13.3,1505.2,326.8,-0.7,1.8,2470.454,13.28,0.023,126.4
2021-07-19T09:52:03,42.805,6.029,0.01,-0.003,0.002,102.0,103.0,101.0,13.4,1505.2,326.6,-0.8,1.8,2470.438,13.28,0.01,106.7
2021-07-19T09:55:03,42.805,6.029,0.015,0.01,0.005,103.0,104.0,102.0,13.4,1505.2,328.6,-0.8,1.8,2470.461,13.28,0.018,56.3
2021-07-19T09:58:03,42.805,6.029,0.018,-0.021,-0.034,104.0,102.0,101.0,13.3,1505.2,328.0,-0.7,1.8,2470.449,13.28,0.027,139.4